Hourly Data Report for October 04, 2016

All times are specified in Local Standard Time (LST). Add 1 hour to adjust for Daylight Saving Time where and when it is observed.

PETAWAWA AWOS 2
ONTARIO

45°57'00.000" N
77°19'00.000" W
130.10 m
6106396
71625
YWA

Download Data

Hourly Data (October 2016)
Hourly Data Report for October 4, 2016
Temp Definition
°C
Dew Point Temp Definition
°C
Rel Hum Definition
%
Wind Dir Definition
10's deg

Wind Spd Definition
km/h
Visibility Definition
km
Stn Press Definition
kPa
Hmdx Definition


Wind Chill Definition


Weather Definition


TIME
00:00 7.4 7.4 100   0 11.3 100.74     LegendNANA
01:00 6.7 6.7 100   0 14.5 100.79     LegendNANA
02:00 7.0 6.9 99   0 14.5 100.82     LegendNANA
03:00 12.4 11.6 95 15 6 14.5 100.86     LegendNANA
04:00 12.4 11.7 96 19 6 14.5 100.89     LegendNANA
05:00 12.4 11.9 97 16 7 14.5 100.93     LegendNANA
06:00 12.2 11.5 96 14 9 14.5 101.00     LegendNANA
07:00 12.1 11.3 95 16 7 14.5 101.06     LegendNANA
08:00 12.6 11.4 92 16 11 14.5 101.13     LegendNANA
09:00 13.7 10.9 83 11 9 14.5 101.18     LegendNANA
10:00 15.3 11.3 77 12 11 14.5 101.17     LegendNANA
11:00 15.0 11.4 79 13 9 14.5 101.16     LegendNANA
12:00 16.6 12.5 77 12 9 14.5 101.13     LegendNANA
13:00 18.4 12.5 68 12 11 14.5 101.04     LegendNANA
14:00 19.5 12.7 65 13 13 14.5 101.01     LegendNANA
15:00 18.7 12.4 67 10 6 14.5 100.99     LegendNANA
16:00 18.4 11.9 66 12 6 14.5 100.98     LegendNANA
17:00 17.9 13.0 73 12 6 14.5 100.98     LegendNANA
18:00 16.5 12.8 79   0 14.5 100.99     LegendNANA
19:00 16.0 12.5 80 12 4 14.5 101.02     LegendNANA
20:00 15.1 12.5 84   0 14.5 101.06     LegendNANA
21:00 11.6 11.6 100   0 14.5 101.09     LegendNANA
22:00 10.6 10.6 100   0 4.0 101.10     LegendNANA
23:00 8.7 8.7 100   0 9.7 101.09     LegendNANA

Notes on Data Quality.

Legend

  • E = Estimated
  • M = Missing
  • NA = Not Available
  • ‡ = Partner data that is not subject to review by the National Climate Archives
Date modified: